Weather History for KTEX - December, 2013

Change the Weather History Date:

Monday, December 23, 2013

  Actual Average Record
Temperature  
Mean Temperature 21 °F -  
Max Temperature 32 °F 32 °F 41 °F (2003)
Min Temperature 10 °F 12 °F -5 °F (2004)
Degree Days  
Heating Degree Days 44    
Moisture  
Dew Point 13 °F    
Average Humidity 72    
Maximum Humidity 93    
Minimum Humidity 44    
Precipitation  
Precipitation 0.00 in - - ()
Sea Level Pressure  
Sea Level Pressure 30.36 in    
Wind  
Wind Speed 3 mph (SE)    
Max Wind Speed 9 mph    
Max Gust Speed -    
Visibility 10 miles    
Events Snow    
Averages and records for this station are not official NWS values.
T = Trace of Precipitation, MM = Missing Value Source: NWS Daily Summary

Daily Weather History Graph

Daily Weather History Graph

Search for Another Location

Airport or City:

Trip Planner

Search our weather history database for the weather conditions in past years. The results will help you decide how hot, cold, wet, or windy it might be!

Date:

Astronomy

Dec. 23, 2013 Rise Set
Actual Time 7:24 AM MST 4:56 PM MST
Civil Twilight 6:55 AM MST 5:26 PM MST
Nautical Twilight 6:22 AM MST 5:59 PM MST
Astronomical Twilight 5:50 AM MST 6:31 PM MST
Moon 11:03 PM MST (12/23) 10:57 AM MST (12/23)
Length of Visible Light 10h 31m
Length of Day
9h 31m
Waning Gibbous, 67% of the Moon is Illuminated
Dec 23
Waning Gibbous
Dec 25
Last Quarter
Jan 1
New
Jan 7
First Quarter
Jan 15
Full

Hourly Weather History & Observations

Time (MST) Temp. Windchill Dew Point Humidity Pressure Visibility Wind Dir Wind Speed Gust Speed Precip Events Conditions
12:15 AM 17.6 °F - 14.0 °F 86% 30.26 in 7.0 mi Calm Calm - N/A Snow Light Snow
12:35 AM 17.6 °F - 14.0 °F 86% 30.26 in 10.0 mi Calm Calm - N/A Snow Light Snow
12:55 AM 17.6 °F 12.3 °F 14.0 °F 86% 30.26 in 10.0 mi ESE 3.5 mph - N/A Snow Light Snow
1:15 AM 17.6 °F 12.3 °F 14.0 °F 86% 30.26 in 10.0 mi SE 3.5 mph - N/A Snow Light Snow
1:35 AM 17.6 °F 12.3 °F 14.0 °F 86% 30.27 in 7.0 mi SE 3.5 mph - N/A Snow Light Snow
1:55 AM 17.6 °F 10.7 °F 14.0 °F 86% 30.27 in 10.0 mi ESE 4.6 mph - N/A Snow Light Snow
2:15 AM 17.6 °F 10.7 °F 14.0 °F 86% 30.28 in 10.0 mi SE 4.6 mph - N/A Snow Light Snow
2:35 AM 17.6 °F 10.7 °F 14.0 °F 86% 30.29 in 10.0 mi ESE 4.6 mph - N/A Snow Light Snow
2:55 AM 17.6 °F 10.7 °F 15.8 °F 93% 30.29 in 10.0 mi ESE 4.6 mph - N/A   Clear
3:15 AM 15.8 °F - 14.0 °F 93% 30.30 in 10.0 mi Calm Calm - N/A   Clear
3:35 AM 15.8 °F - 14.0 °F 93% 30.31 in 10.0 mi Calm Calm - N/A   Clear
3:55 AM 14.0 °F 6.5 °F 12.2 °F 93% 30.31 in 10.0 mi SE 4.6 mph - N/A   Clear
4:15 AM 14.0 °F 5.1 °F 12.2 °F 93% 30.31 in 10.0 mi ESE 5.8 mph - N/A   Clear
4:35 AM 14.0 °F 8.2 °F 10.4 °F 86% 30.32 in 10.0 mi SE 3.5 mph - N/A   Clear
4:55 AM 14.0 °F 5.1 °F 12.2 °F 93% 30.33 in 10.0 mi ESE 5.8 mph - N/A   Clear
5:15 AM 14.0 °F - 10.4 °F 86% 30.33 in 10.0 mi Calm Calm - N/A   Clear
5:35 AM 14.0 °F 3.9 °F 10.4 °F 86% 30.33 in 10.0 mi SE 6.9 mph - N/A   Clear
5:55 AM 14.0 °F 5.1 °F 10.4 °F 86% 30.33 in 10.0 mi SE 5.8 mph - N/A   Clear
6:15 AM 14.0 °F 6.5 °F 10.4 °F 86% 30.33 in 10.0 mi East 4.6 mph - N/A   Clear
6:35 AM 12.2 °F 2.9 °F 8.6 °F 85% 30.33 in 10.0 mi ESE 5.8 mph - N/A   Clear
6:55 AM 12.2 °F 2.9 °F 10.4 °F 92% 30.34 in 10.0 mi ESE 5.8 mph - N/A   Clear
7:15 AM 12.2 °F 2.9 °F 8.6 °F 85% 30.35 in 10.0 mi East 5.8 mph - N/A   Clear
7:35 AM 12.2 °F 4.3 °F 8.6 °F 85% 30.36 in 10.0 mi ESE 4.6 mph - N/A   Clear
7:55 AM 10.4 °F 0.8 °F 8.6 °F 92% 30.37 in 10.0 mi ESE 5.8 mph - N/A   Clear
8:15 AM 12.2 °F 6.1 °F 8.6 °F 85% 30.38 in 10.0 mi SE 3.5 mph - N/A   Clear
8:35 AM 14.0 °F 6.5 °F 8.6 °F 79% 30.39 in 10.0 mi ESE 4.6 mph - N/A   Clear
8:55 AM 14.0 °F 8.2 °F 10.4 °F 86% 30.40 in 10.0 mi ESE 3.5 mph - N/A   Clear
9:15 AM 15.8 °F 10.2 °F 10.4 °F 79% 30.40 in 10.0 mi ESE 3.5 mph - N/A   Clear
9:35 AM 17.6 °F - 10.4 °F 73% 30.40 in 10.0 mi Calm Calm - N/A   Clear
9:55 AM 17.6 °F - 10.4 °F 73% 30.41 in 10.0 mi Calm Calm - N/A   Clear
10:15 AM 21.2 °F - 12.2 °F 68% 30.42 in 10.0 mi Calm Calm - N/A   Clear
10:35 AM 21.2 °F - 12.2 °F 68% 30.42 in 10.0 mi Calm Calm - N/A   Clear
10:55 AM 21.2 °F - 12.2 °F 68% 30.42 in 10.0 mi Calm Calm - N/A   Clear
11:15 AM 23.0 °F - 12.2 °F 63% 30.41 in 10.0 mi Calm Calm - N/A   Clear
11:35 AM 24.8 °F - 12.2 °F 59% 30.40 in 10.0 mi Calm Calm - N/A   Clear
11:55 AM 26.6 °F - 12.2 °F 55% 30.39 in 10.0 mi Calm Calm - N/A   Clear
12:15 PM 28.4 °F - 10.4 °F 47% 30.37 in 10.0 mi Calm Calm - N/A   Clear
12:35 PM 28.4 °F - 10.4 °F 47% 30.36 in 10.0 mi Calm Calm - N/A   Clear
12:55 PM 30.2 °F - 10.4 °F 44% 30.35 in 10.0 mi Calm Calm - N/A   Clear
1:15 PM 30.2 °F 26.7 °F 10.4 °F 44% 30.35 in 10.0 mi WSW 3.5 mph - N/A   Clear
1:35 PM 32.0 °F - 12.2 °F 44% 30.35 in 10.0 mi Calm Calm - N/A   Clear
1:55 PM 32.0 °F 26.4 °F 12.2 °F 44% 30.35 in 10.0 mi WSW 5.8 mph - N/A   Clear
2:15 PM 32.0 °F 24.2 °F 12.2 °F 44% 30.36 in 10.0 mi West 9.2 mph - N/A   Clear
2:35 PM 32.0 °F 25.6 °F 14.0 °F 48% 30.37 in 10.0 mi WSW 6.9 mph - N/A   Clear
2:55 PM 32.0 °F 25.6 °F 12.2 °F 44% 30.37 in 10.0 mi WSW 6.9 mph - N/A   Clear
3:15 PM 32.0 °F 27.5 °F 12.2 °F 44% 30.37 in 10.0 mi West 4.6 mph - N/A   Clear
3:35 PM 32.0 °F 27.5 °F 12.2 °F 44% 30.37 in 10.0 mi WSW 4.6 mph - N/A   Clear
3:55 PM 32.0 °F 28.7 °F 12.2 °F 44% 30.37 in 10.0 mi SW 3.5 mph - N/A   Clear
4:15 PM 32.0 °F 28.7 °F 12.2 °F 44% 30.37 in 10.0 mi West 3.5 mph - N/A   Clear
4:35 PM 30.2 °F 24.3 °F 10.4 °F 44% 30.37 in 10.0 mi WSW 5.8 mph - N/A   Clear
4:55 PM 28.4 °F 22.2 °F 12.2 °F 51% 30.37 in 10.0 mi SSW 5.8 mph - N/A   Clear
5:15 PM 28.4 °F 22.2 °F 14.0 °F 55% 30.38 in 10.0 mi West 5.8 mph - N/A   Clear
5:35 PM 26.6 °F 20.0 °F 15.8 °F 64% 30.39 in 10.0 mi West 5.8 mph - N/A   Clear
5:55 PM 26.6 °F - 17.6 °F 69% 30.40 in 10.0 mi Calm Calm - N/A   Clear
6:15 PM 24.8 °F - 17.6 °F 74% 30.40 in 10.0 mi Calm Calm - N/A   Clear
6:35 PM 24.8 °F - 17.6 °F 74% 30.40 in 10.0 mi Calm Calm - N/A   Clear
6:55 PM 23.0 °F - 14.0 °F 68% 30.40 in 10.0 mi Calm Calm - N/A   Clear
7:15 PM 23.0 °F - 14.0 °F 68% 30.41 in 10.0 mi Calm Calm - N/A   Clear
7:35 PM 21.2 °F - 14.0 °F 74% 30.41 in 10.0 mi Calm Calm - N/A   Clear
7:55 PM 21.2 °F - 14.0 °F 74% 30.41 in 10.0 mi Calm Calm - N/A   Clear
8:15 PM 23.0 °F 15.8 °F 14.0 °F 68% 30.41 in 10.0 mi SE 5.8 mph - N/A   Clear
8:35 PM 21.2 °F - 14.0 °F 74% 30.42 in 10.0 mi Calm Calm - N/A   Clear
8:55 PM 21.2 °F - 14.0 °F 74% 30.41 in 10.0 mi Calm Calm - N/A   Clear
9:15 PM 21.2 °F 14.9 °F 12.2 °F 68% 30.41 in 10.0 mi ESE 4.6 mph - N/A   Clear
9:35 PM 21.2 °F 16.4 °F 14.0 °F 74% 30.41 in 10.0 mi ESE 3.5 mph - N/A   Clear
9:55 PM 21.2 °F - 14.0 °F 74% 30.41 in 10.0 mi Calm Calm - N/A   Clear
10:15 PM 19.4 °F - 14.0 °F 80% 30.42 in 10.0 mi Calm Calm - N/A   Clear
10:35 PM 19.4 °F - 14.0 °F 80% 30.42 in 10.0 mi Calm Calm - N/A   Clear
10:55 PM 19.4 °F - 14.0 °F 80% 30.41 in 10.0 mi Calm Calm - N/A   Clear
11:15 PM 21.2 °F 12.6 °F 14.0 °F 74% 30.40 in 10.0 mi SE 6.9 mph - N/A   Clear
11:35 PM 19.4 °F 10.4 °F 14.0 °F 80% 30.40 in 10.0 mi ESE 6.9 mph - N/A   Clear
11:55 PM 21.2 °F 13.6 °F 14.0 °F 74% 30.39 in 10.0 mi East 5.8 mph - N/A   Clear